When you browse on this site, cookies collect data to enhance your experience and personalize the content and advertising you see.
Visit our Privacy Policy to learn more. By continuing to use the site, you agree to this use of cookies and data.
  • în România
  • Lista ţărilor
  • Pe 7 zile
  • Temperatura apei
  • Hartă satelitară
  • Meteo pe hartă
  • Widget-uri
  • user-avatar
    Intrare

    Meteo pe oră la Arrifana

    Astăzi, 25 Aprilie, Joi

    Timp Temperatura Precipitaţii Vânt Presiune Umiditate
    00:00 +8°C° 0.9 mm 6 m/s 737 mmHg 84%
    01:00 +8°C° 0.9 mm 6 m/s 737 mmHg 84%
    02:00 +8°C° 0.9 mm 7 m/s 737 mmHg 83%
    03:00 +8°C° 0.7 mm 6 m/s 738 mmHg 83%
    04:00 +7°C° 0.7 mm 6 m/s 738 mmHg 82%
    05:00 +7°C° 0.7 mm 6 m/s 738 mmHg 81%
    06:00 +8°C° 0.6 mm 6 m/s 739 mmHg 79%
    07:00 +9°C° 0.6 mm 6 m/s 740 mmHg 77%
    08:00 +10°C° 0.6 mm 7 m/s 740 mmHg 75%
    09:00 +10°C° 0.7 mm 7 m/s 741 mmHg 74%
    10:00 +10°C° 0.7 mm 7 m/s 742 mmHg 72%
    11:00 +11°C° 0.7 mm 7 m/s 742 mmHg 71%
    12:00 +11°C° 0.6 mm 7 m/s 743 mmHg 70%
    13:00 +11°C° 0.6 mm 7 m/s 743 mmHg 70%
    14:00 +11°C° 0.6 mm 7 m/s 744 mmHg 69%
    15:00 +11°C° 0.6 mm 7 m/s 744 mmHg 74%
    16:00 +10°C° 0.6 mm 6 m/s 745 mmHg 78%
    17:00 +10°C° 0.6 mm 5 m/s 745 mmHg 82%
    18:00 +9°C° 0.4 mm 5 m/s 746 mmHg 84%
    19:00 +10°C° 0.4 mm 4 m/s 747 mmHg 86%
    20:00 +9°C° 0.4 mm 3 m/s 748 mmHg 88%
    21:00 +9°C° 0.1 mm 3 m/s 748 mmHg 89%
    22:00 +9°C° 0.1 mm 2 m/s 749 mmHg 89%
    23:00 +9°C° 0.1 mm 2 m/s 750 mmHg 90%

    Mâine, 26 Aprilie, Vineri

    Timp Temperatura Precipitaţii Vânt Presiune Umiditate
    00:00 +8°C° 0.1 mm 2 m/s 750 mmHg 91%
    01:00 +8°C° 0.1 mm 2 m/s 750 mmHg 91%
    02:00 +9°C° 0.1 mm 1 m/s 750 mmHg 91%
    03:00 +9°C° 0.1 mm 1 m/s 751 mmHg 91%
    04:00 +9°C° 0.1 mm 1 m/s 751 mmHg 91%
    05:00 +9°C° 0.1 mm 1 m/s 751 mmHg 90%
    06:00 +10°C° 0 mm 1 m/s 752 mmHg 83%
    07:00 +12°C° 0 mm 2 m/s 752 mmHg 76%
    08:00 +13°C° 0 mm 2 m/s 753 mmHg 69%
    09:00 +14°C° 0 mm 2 m/s 753 mmHg 62%
    10:00 +15°C° 0 mm 2 m/s 753 mmHg 55%
    11:00 +16°C° 0 mm 3 m/s 754 mmHg 49%
    12:00 +16°C° 0 mm 3 m/s 753 mmHg 48%
    13:00 +15°C° 0 mm 4 m/s 753 mmHg 48%
    14:00 +15°C° 0 mm 4 m/s 753 mmHg 48%
    15:00 +15°C° 0 mm 4 m/s 753 mmHg 51%
    16:00 +14°C° 0 mm 4 m/s 753 mmHg 55%
    17:00 +13°C° 0 mm 4 m/s 753 mmHg 58%
    18:00 +12°C° 0 mm 4 m/s 753 mmHg 65%
    19:00 +10°C° 0 mm 3 m/s 754 mmHg 71%
    20:00 +9°C° 0 mm 3 m/s 754 mmHg 77%
    21:00 +8°C° 0 mm 3 m/s 754 mmHg 79%
    22:00 +8°C° 0 mm 3 m/s 754 mmHg 80%
    23:00 +8°C° 0 mm 2 m/s 754 mmHg 82%

    Poimâine, 27 Aprilie, Sâmbătă

    Timp Temperatura Precipitaţii Vânt Presiune Umiditate
    00:00 +8°C° 0 mm 2 m/s 754 mmHg 82%
    01:00 +7°C° 0 mm 3 m/s 754 mmHg 83%
    02:00 +7°C° 0 mm 3 m/s 754 mmHg 84%
    03:00 +7°C° 0 mm 2 m/s 754 mmHg 83%
    04:00 +7°C° 0 mm 2 m/s 753 mmHg 82%
    05:00 +7°C° 0 mm 2 m/s 753 mmHg 81%
    06:00 +10°C° 0 mm 2 m/s 753 mmHg 71%
    07:00 +14°C° 0 mm 2 m/s 753 mmHg 60%
    08:00 +17°C° 0 mm 2 m/s 753 mmHg 50%
    09:00 +19°C° 0 mm 2 m/s 753 mmHg 47%
    10:00 +21°C° 0 mm 2 m/s 753 mmHg 44%
    11:00 +24°C° 0 mm 3 m/s 753 mmHg 40%
    12:00 +24°C° 0 mm 3 m/s 753 mmHg 41%
    13:00 +23°C° 0 mm 4 m/s 752 mmHg 42%
    14:00 +25°C° 0 mm 4 m/s 752 mmHg 43%
    15:00 +22°C° 0 mm 4 m/s 751 mmHg 48%
    16:00 +21°C° 0 mm 4 m/s 751 mmHg 54%
    17:00 +20°C° 0 mm 4 m/s 751 mmHg 59%
    18:00 +19°C° 0 mm 4 m/s 751 mmHg 66%
    19:00 +17°C° 0 mm 3 m/s 751 mmHg 73%
    20:00 +14°C° 0 mm 3 m/s 751 mmHg 80%
    21:00 +15°C° 0 mm 2 m/s 751 mmHg 80%
    22:00 +15°C° 0 mm 2 m/s 751 mmHg 80%
    23:00 +14°C° 0 mm 2 m/s 751 mmHg 80%

    28 Aprilie, Duminică

    Timp Temperatura Precipitaţii Vânt Presiune Umiditate
    00:00 +14°C° 0 mm 2 m/s 750 mmHg 79%
    01:00 +14°C° 0 mm 2 m/s 750 mmHg 78%
    02:00 +14°C° 0 mm 2 m/s 750 mmHg 77%
    03:00 +14°C° 0 mm 2 m/s 749 mmHg 77%
    04:00 +14°C° 0 mm 2 m/s 749 mmHg 77%
    05:00 +13°C° 0 mm 2 m/s 749 mmHg 77%
    06:00 +16°C° 0 mm 2 m/s 749 mmHg 69%
    07:00 +18°C° 0 mm 2 m/s 749 mmHg 61%
    08:00 +20°C° 0 mm 2 m/s 749 mmHg 53%
    09:00 +23°C° 0 mm 2 m/s 749 mmHg 47%
    10:00 +25°C° 0 mm 2 m/s 749 mmHg 42%
    11:00 +27°C° 0 mm 1 m/s 748 mmHg 36%
    12:00 +28°C° 0 mm 1 m/s 748 mmHg 35%
    13:00 +28°C° 0 mm 2 m/s 747 mmHg 34%
    14:00 +29°C° 0 mm 2 m/s 747 mmHg 33%
    15:00 +27°C° 0 mm 2 m/s 746 mmHg 38%
    16:00 +26°C° 0 mm 3 m/s 746 mmHg 42%
    17:00 +24°C° 0 mm 3 m/s 746 mmHg 47%
    18:00 +21°C° 0 mm 3 m/s 746 mmHg 52%
    19:00 +19°C° 0 mm 2 m/s 746 mmHg 57%
    20:00 +18°C° 0 mm 2 m/s 746 mmHg 62%
    21:00 +17°C° 0 mm 2 m/s 746 mmHg 62%
    22:00 +17°C° 0 mm 2 m/s 746 mmHg 62%
    23:00 +16°C° 0 mm 1 m/s 746 mmHg 63%

    29 Aprilie, Luni

    Timp Temperatura Precipitaţii Vânt Presiune Umiditate
    00:00 +16°C° 0 mm 1 m/s 746 mmHg 62%
    01:00 +16°C° 0 mm 1 m/s 745 mmHg 61%
    02:00 +15°C° 0 mm 1 m/s 745 mmHg 60%
    03:00 +15°C° 0 mm 1 m/s 745 mmHg 59%
    04:00 +15°C° 0 mm 1 m/s 745 mmHg 58%
    05:00 +14°C° 0 mm 1 m/s 745 mmHg 58%
    06:00 +18°C° 0 mm 1 m/s 745 mmHg 52%
    07:00 +21°C° 0 mm 1 m/s 746 mmHg 47%
    08:00 +21°C° 0 mm 0 m/s 746 mmHg 42%
    09:00 +25°C° 0 mm 1 m/s 746 mmHg 39%
    10:00 +26°C° 0 mm 2 m/s 745 mmHg 36%
    11:00 +28°C° 0 mm 2 m/s 745 mmHg 34%
    12:00 +27°C° 0 mm 3 m/s 745 mmHg 35%
    13:00 +27°C° 0 mm 3 m/s 745 mmHg 35%
    14:00 +27°C° 0 mm 4 m/s 744 mmHg 36%
    15:00 +25°C° 0 mm 4 m/s 744 mmHg 42%
    16:00 +23°C° 0 mm 4 m/s 744 mmHg 47%
    17:00 +21°C° 0 mm 3 m/s 744 mmHg 52%
    18:00 +19°C° 0 mm 3 m/s 744 mmHg 58%
    19:00 +17°C° 0 mm 3 m/s 745 mmHg 64%
    20:00 +15°C° 0 mm 2 m/s 745 mmHg 70%
    21:00 +15°C° 0 mm 2 m/s 745 mmHg 72%
    22:00 +14°C° 0 mm 2 m/s 745 mmHg 74%
    23:00 +14°C° 0 mm 1 m/s 745 mmHg 76%

    30 Aprilie, Marţi

    Timp Temperatura Precipitaţii Vânt Presiune Umiditate
    00:00 +14°C° 0 mm 2 m/s 745 mmHg 77%
    01:00 +13°C° 0 mm 2 m/s 745 mmHg 79%
    02:00 +13°C° 0 mm 2 m/s 744 mmHg 81%
    03:00 +13°C° 0 mm 2 m/s 744 mmHg 81%
    04:00 +13°C° 0 mm 2 m/s 745 mmHg 82%
    05:00 +12°C° 0 mm 2 m/s 745 mmHg 83%
    06:00 +15°C° 0 mm 2 m/s 745 mmHg 74%
    07:00 +17°C° 0 mm 2 m/s 745 mmHg 64%
    08:00 +19°C° 0 mm 2 m/s 745 mmHg 55%
    09:00 +21°C° 0 mm 3 m/s 745 mmHg 50%
    10:00 +22°C° 0 mm 3 m/s 745 mmHg 44%
    11:00 +23°C° 0 mm 4 m/s 745 mmHg 39%
    12:00 +23°C° 0 mm 4 m/s 744 mmHg 40%
    13:00 +23°C° 0 mm 4 m/s 744 mmHg 41%
    14:00 +22°C° 0 mm 5 m/s 744 mmHg 43%
    15:00 +21°C° 0 mm 4 m/s 744 mmHg 48%
    16:00 +20°C° 0 mm 4 m/s 743 mmHg 54%
    17:00 +19°C° 0 mm 4 m/s 743 mmHg 59%
    18:00 +17°C° 0 mm 3 m/s 744 mmHg 67%
    19:00 +14°C° 0 mm 3 m/s 744 mmHg 76%
    20:00 +12°C° 0 mm 3 m/s 744 mmHg 84%
    21:00 +13°C° 0 mm 2 m/s 744 mmHg 86%
    22:00 +13°C° 0 mm 2 m/s 744 mmHg 88%
    23:00 +12°C° 0 mm 2 m/s 743 mmHg 90%
    Arată mai mult